[[{"header":{"parameterUnit":"m.s-1","parameterCategory":1,"la1":30.2991,"la2":30.254,"lo1":-89.0895,"lo2":-89.0444,"dy":0.0017,"dx":0.0017,"nx":28,"ny":28,"refTime":"2024-04-19T21:00:00:Z","depth":0,"parameterNumber":2,"parameterNumberName":"U-component_of_WINDS"},"data":[0,0,0,0,0,0,0,0,0,0,0,0,0,0,0,0,0,0,0,0,0,0,0,0,0,0,0,0,0,0,0,0,0,0,0,0,0,0,0,0,0,0,0,0,0,0,0,0,0,0,0,0,0,0,0,0,0,0,0.3631,0.3633,0,0.3763,0.3764,0.3766,0.3817,0.3816,0.3816,0.3815,0.3952,0.3956,0.396,0,0,0,0,0,0,0,0,0,0,0,0,0,0.3425,0.3429,0.3631,0.3633,0.3634,0.3763,0.3764,0.3766,0.3817,0.3816,0.3816,0.3815,0.3951,0.3956,0.396,0,0,0,0,0,0,0,0,0,0,0,0,0,0.3531,0.343,0.3631,0.3675,0.368,0.3762,0.3764,0.3767,0.3817,0.3816,0.3816,0.3815,0.3949,0.3955,0.3961,0.4009,0,0,0.3979,0.3982,0,0,0,0,0,0,0,0,0.3525,0.3539,0.3667,0.3672,0.3678,0.3773,0.3742,0.3848,0.3817,0.3765,0.3815,0.3815,0.3893,0.3904,0.393,0.4016,0.4022,0.398,0.3984,0.3986,0.3988,0,0,0,0,0,0,0,0.3518,0.3534,0.3683,0.3669,0.3676,0.3689,0.3703,0.3762,0.3831,0.377,0.3773,0.3788,0.3896,0.3924,0.3933,0.4024,0.398,0.3985,0.3989,0.3991,0.4156,0.4157,0,0,0,0,0,0,0.3503,0.3527,0.3679,0.3687,0.3599,0.3693,0.3709,0.3743,0.383,0.3843,0.3789,0.379,0.3914,0.3926,0.3938,0.4,0.3986,0.3992,0.3995,0.4155,0.4156,0.4157,0,0,0,0,0,0,0.3498,0.3516,0.3674,0.3608,0.3629,0.3697,0.3735,0.3746,0.3774,0.3845,0.3857,0.3804,0.3914,0.393,0.3991,0.4006,0.3994,0.4,0.4154,0.4155,0.4156,0.4125,0,0,0,0,0,0,0.3492,0.3514,0.3533,0.3608,0.3633,0.3724,0.3736,0.3749,0.3784,0.3787,0.3863,0.3875,0.3915,0.3982,0.3997,0.4014,0.4005,0.4153,0.4155,0.4156,0.4125,0.4125,0.4125,0,0,0,0,0,0.3485,0.3519,0.3534,0.3552,0.3657,0.3725,0.3739,0.3783,0.3784,0.3804,0.385,0.3872,0.4002,0.3988,0.4005,0.4024,0.4152,0.4154,0.4156,0.4125,0.4125,0.4125,0,0,0,0,0,0,0.3444,0.353,0.3547,0.3607,0.3658,0.3733,0.3759,0.3782,0.3835,0.3835,0.3889,0.3906,0.3963,0.4,0.3983,0.4075,0.4079,0.4084,0.4049,0.405,0.4049,0.404,0.4009,0,0,0,0,0,0.3442,0.3489,0.3562,0.3608,0.3632,0.3691,0.3722,0.3752,0.3808,0.383,0.388,0.3933,0.3986,0.402,0.4073,0.413,0.4148,0.4152,0.4152,0.4151,0.4155,0.4189,0.4191,0.4163,0.4163,0.4163,0,0,0.3439,0.3491,0.3518,0.3601,0.3644,0.3692,0.3709,0.3759,0.3795,0.3838,0.3898,0.3937,0.4,0.406,0.4089,0.4092,0.4167,0.4154,0.4153,0.4157,0.4191,0.4193,0.4196,0.4164,0.4164,0.4163,0,0,0.3457,0.3501,0.3544,0.3587,0.3652,0.3691,0.3701,0.3773,0.38,0.3861,0.3894,0.3938,0.4028,0.4071,0.4105,0.4139,0.4162,0.4155,0.4154,0.4186,0.4188,0.4191,0.4203,0.4207,0.4158,0.4158,0.4158,0,0.3445,0.3518,0.3564,0.3612,0.3647,0.3687,0.3731,0.377,0.3849,0.3873,0.3876,0.3989,0.4034,0.4105,0.4113,0.4139,0.4153,0.4147,0.4184,0.4187,0.419,0.4202,0.4206,0.4157,0.4157,0.4157,0.4158,0,0.3499,0.3549,0.3576,0.365,0.3689,0.3735,0.3788,0.3821,0.3848,0.3886,0.3948,0.4004,0.4069,0.4087,0.4114,0.4162,0.4162,0.4174,0.4178,0.4191,0.4203,0.4208,0.4155,0.4156,0.4156,0.4156,0,0,0.3496,0.3595,0.3604,0.3638,0.3712,0.3752,0.3799,0.3861,0.3889,0.3942,0.3984,0.4058,0.4069,0.4108,0.414,0.4168,0.4191,0.4176,0.4179,0.4177,0.4246,0.4237,0.4242,0.4206,0.4207,0.4208,0.4241,0,0.3524,0.361,0.3653,0.3721,0.3767,0.3805,0.3847,0.3897,0.3934,0.3979,0.4021,0.4073,0.4084,0.4107,0.4136,0.4181,0.4205,0.418,0.4246,0.4247,0.4229,0.4248,0.4239,0.4267,0.4246,0.4247,0.4248,0,0.3568,0.362,0.3692,0.376,0.3782,0.3818,0.3878,0.3921,0.3979,0.4004,0.4046,0.4077,0.4129,0.4129,0.4202,0.4183,0.4213,0.4239,0.4241,0.4249,0.4248,0.4257,0.4278,0.4282,0.4256,0.4255,0.4255,0,0.3559,0.3646,0.3701,0.3729,0.381,0.3835,0.387,0.3927,0.3961,0.4014,0.4037,0.4095,0.4127,0.4172,0.4218,0.4214,0.4286,0.429,0.4309,0.4307,0.4322,0.4321,0.4348,0.4341,0.4341,0.4341,0.4341,0,0.3585,0.3628,0.3698,0.3731,0.378,0.3829,0.3876,0.3914,0.3964,0.4006,0.4043,0.4081,0.414,0.4186,0.4222,0.4277,0.4291,0.4313,0.4322,0.431,0.4307,0.433,0.4329,0.4342,0.4342,0.4341,0.4341,0,0.3583,0.3631,0.3693,0.3765,0.3783,0.3816,0.3878,0.3912,0.395,0.4003,0.4018,0.4079,0.4135,0.4185,0.426,0.4284,0.434,0.4351,0.432,0.4325,0.4341,0.4338,0.4384,0.4392,0.4379,0.4379,0.4379,0,0.3597,0.3631,0.3705,0.3736,0.377,0.3818,0.3853,0.3902,0.3938,0.4005,0.4031,0.409,0.4139,0.4227,0.4279,0.4336,0.4349,0.4361,0.4358,0.4344,0.4349,0.4347,0.435,0.4361,0.4361,0.436,0.436,0,0.3617,0.3639,0.3688,0.3745,0.3785,0.3833,0.3882,0.3904,0.3963,0.4001,0.4058,0.4096,0.4172,0.4229,0.4292,0.4329,0.4355,0.4361,0.4368,0.4356,0.4336,0.4347,0.4319,0.436,0.436,0.436,0.436,0.436,0.3623,0.3655,0.3712,0.3765,0.3807,0.3851,0.3887,0.3929,0.3978,0.4042,0.4069,0.4127,0.4184,0.4271,0.4307,0.4354,0.4359,0.4369,0.4372,0.4374,0.4372,0.4328,0.4366,0.4366,0.4366,0.4366,0.4366,0,0.3645,0.3683,0.3732,0.3798,0.384,0.3859,0.3914,0.3948,0.3998,0.4049,0.4097,0.4162,0.4218,0.4274,0.4333,0.436,0.4373,0.4373,0.4372,0.438,0.4364,0.4352,0.4362,0.4362,0.4362,0.4362,0.4362,0.4362,0.3661,0.3715,0.3744,0.3819,0.3858,0.3914,0.3944,0.3985,0.4026,0.4097,0.4143,0.4179,0.4232,0.4295,0.4347,0.4362,0.4382,0.438,0.4398,0.4382,0.4381,0.4381,0.437,0.4384,0.4384,0.441,0.441,0.4411]},{"header":{"parameterUnit":"m.s-1","parameterCategory":1,"la1":30.2991,"la2":30.254,"lo1":-89.0895,"lo2":-89.0444,"dy":0.0017,"dx":0.0017,"nx":28,"ny":28,"refTime":"2024-04-19T21:00:00:Z","depth":0,"parameterNumber":3,"parameterNumberName":"V-component_of_WINDS"},"data":[0,0,0,0,0,0,0,0,0,0,0,0,0,0,0,0,0,0,0,0,0,0,0,0,0,0,0,0,0,0,0,0,0,0,0,0,0,0,0,0,0,0,0,0,0,0,0,0,0,0,0,0,0,0,0,0,0,0,3.144,3.144,0,3.1417,3.1417,3.1416,3.1344,3.1343,3.1341,3.1339,3.1317,3.1318,3.1319,0,0,0,0,0,0,0,0,0,0,0,0,0,3.1424,3.1425,3.144,3.144,3.144,3.1417,3.1417,3.1416,3.1344,3.1342,3.1341,3.1339,3.1317,3.1318,3.1319,0,0,0,0,0,0,0,0,0,0,0,0,0,3.1419,3.1425,3.144,3.1401,3.1397,3.1417,3.1417,3.1416,3.1345,3.1342,3.134,3.1338,3.1317,3.1318,3.1319,3.1376,0,0,3.1324,3.1324,0,0,0,0,0,0,0,0,3.142,3.142,3.1407,3.1404,3.14,3.1381,3.1403,3.1403,3.1345,3.1365,3.1339,3.1337,3.1341,3.134,3.1341,3.1375,3.1374,3.1324,3.1324,3.1325,3.1325,0,0,0,0,0,0,0,3.142,3.142,3.1431,3.1407,3.1402,3.1385,3.1382,3.1402,3.1367,3.1363,3.1358,3.1356,3.1338,3.134,3.134,3.1374,3.1324,3.1325,3.1326,3.1326,3.1453,3.1455,0,0,0,0,0,0,3.1426,3.1421,3.1432,3.143,3.1404,3.1387,3.1384,3.1389,3.1366,3.136,3.1358,3.1352,3.1339,3.1338,3.1339,3.1403,3.1325,3.1326,3.1327,3.145,3.1453,3.1456,0,0,0,0,0,0,3.1426,3.1427,3.1433,3.1424,3.1424,3.139,3.1397,3.139,3.1392,3.1362,3.1356,3.1366,3.1337,3.1337,3.1367,3.1401,3.1327,3.1328,3.1447,3.1451,3.1455,3.1533,0,0,0,0,0,0,3.1426,3.1428,3.1449,3.1425,3.1424,3.1461,3.1399,3.1391,3.1394,3.1387,3.1368,3.1363,3.1335,3.1365,3.1368,3.1402,3.1329,3.1444,3.1449,3.1453,3.1527,3.1539,3.1549,0,0,0,0,0,3.1425,3.1472,3.145,3.1452,3.145,3.1463,3.1463,3.1429,3.1397,3.1418,3.1399,3.1363,3.1397,3.1369,3.1372,3.1406,3.1442,3.1447,3.1453,3.1522,3.1537,3.1549,0,0,0,0,0,0,3.1501,3.1468,3.1444,3.1484,3.1477,3.1451,3.1476,3.1446,3.1448,3.1441,3.14,3.1396,3.1433,3.1422,3.1392,3.146,3.1413,3.142,3.1465,3.1479,3.1489,3.1491,3.133,0,0,0,0,0,3.1522,3.1536,3.1507,3.1545,3.1543,3.1511,3.1515,3.149,3.1481,3.1478,3.1461,3.1455,3.1463,3.147,3.1477,3.1525,3.152,3.155,3.1561,3.157,3.1577,3.1602,3.1615,3.1475,3.1475,3.1475,0,0,3.1567,3.1551,3.1562,3.156,3.1552,3.1567,3.1508,3.1527,3.1538,3.1481,3.1508,3.1496,3.1486,3.1525,3.1542,3.1518,3.1614,3.1578,3.1585,3.1587,3.1609,3.1622,3.1634,3.1479,3.1478,3.1477,0,0,3.1656,3.1645,3.1675,3.1668,3.1655,3.1634,3.1641,3.162,3.1609,3.1636,3.1593,3.1606,3.1622,3.1617,3.1616,3.1703,3.167,3.1706,3.1764,3.1788,3.1799,3.1809,3.184,3.1852,3.1712,3.1713,3.1713,0,3.1713,3.1733,3.1696,3.1717,3.1717,3.1665,3.1697,3.1691,3.1682,3.1684,3.1657,3.1677,3.1666,3.1704,3.1725,3.1726,3.1734,3.1708,3.1801,3.181,3.1818,3.1848,3.186,3.1717,3.1717,3.1716,3.1716,0,3.1804,3.1819,3.1846,3.1837,3.1841,3.1867,3.1834,3.1842,3.1817,3.1798,3.1826,3.1811,3.1814,3.1821,3.1796,3.1855,3.1841,3.1808,3.1761,3.1837,3.1864,3.1875,3.1723,3.1722,3.172,3.1719,0,0,3.1941,3.1911,3.1921,3.1916,3.1899,3.191,3.1934,3.1936,3.1944,3.194,3.1959,3.1974,3.1943,3.1943,3.1917,3.1939,3.2009,3.1903,3.1902,3.1924,3.2073,3.2098,3.2112,3.1987,3.1989,3.199,3.2074,0,3.2025,3.2064,3.203,3.2075,3.2089,3.204,3.206,3.2052,3.2035,3.2045,3.2026,3.2037,3.1996,3.1995,3.2015,3.1996,3.2038,3.1989,3.2005,3.2006,3.201,3.2126,3.2152,3.2232,3.2084,3.2086,3.2087,0,3.2129,3.2128,3.2175,3.2153,3.2158,3.2177,3.2176,3.2186,3.2176,3.2162,3.2161,3.2129,3.2152,3.2105,3.2136,3.2104,3.2108,3.21,3.2102,3.2103,3.2052,3.213,3.2256,3.2269,3.2103,3.2102,3.2101,0,3.2224,3.2235,3.2264,3.2261,3.2238,3.2252,3.2243,3.223,3.2234,3.2233,3.2235,3.2238,3.2239,3.2242,3.2212,3.2181,3.2247,3.2198,3.2237,3.2238,3.2254,3.2253,3.2383,3.2256,3.2256,3.2256,3.2255,0,3.2322,3.2352,3.2306,3.2324,3.2357,3.2318,3.2352,3.2338,3.2327,3.2342,3.2299,3.2314,3.2273,3.2284,3.2261,3.2291,3.2292,3.2281,3.2275,3.2286,3.2287,3.2288,3.2282,3.2259,3.2258,3.2257,3.2257,0,3.2434,3.2404,3.2433,3.2408,3.2402,3.2427,3.2406,3.2422,3.2402,3.2421,3.2424,3.2393,3.2403,3.2373,3.238,3.2364,3.2407,3.2391,3.241,3.2405,3.2446,3.2443,3.2582,3.2599,3.2461,3.2462,3.2463,0,3.2499,3.2521,3.2498,3.2504,3.2497,3.2508,3.2511,3.2474,3.2479,3.2469,3.2487,3.2493,3.2497,3.2516,3.2495,3.25,3.2484,3.2532,3.2484,3.2494,3.2485,3.2485,3.2487,3.2543,3.2544,3.2546,3.2547,0,3.2617,3.2601,3.2606,3.2607,3.2611,3.261,3.2606,3.2614,3.2574,3.2582,3.2592,3.2595,3.2601,3.2609,3.2608,3.26,3.2567,3.2562,3.2571,3.2583,3.2593,3.2588,3.2438,3.2559,3.2558,3.2557,3.2556,3.2556,3.2707,3.2725,3.2711,3.2719,3.2712,3.2709,3.2722,3.2704,3.2711,3.2712,3.269,3.2705,3.2694,3.269,3.2685,3.2696,3.2674,3.2688,3.2691,3.2695,3.2702,3.2591,3.2696,3.2696,3.2696,3.2695,3.2695,0,3.2824,3.2812,3.2819,3.2815,3.2821,3.2788,3.2782,3.279,3.2803,3.2795,3.2799,3.2811,3.2818,3.2797,3.2802,3.2815,3.28,3.2817,3.2816,3.2815,3.2722,3.2713,3.2829,3.2829,3.2829,3.2829,3.2829,3.2829,3.2885,3.2912,3.2895,3.2919,3.2907,3.292,3.292,3.2917,3.2911,3.2925,3.2931,3.2917,3.2904,3.2907,3.2912,3.2906,3.291,3.2932,3.2921,3.2834,3.2821,3.2809,3.2801,3.2933,3.2933,3.3013,3.3014,3.3014]}]]